User: anonymous   Login
Location: Ostrava
(49.8330°N, 18.2830°E)
Time: 05:05:05
(UTC+01:00)
Language:

NOAA 19 - Orbit

View from above orbital plane
View from above orbital plane
View from above satellite
View from above satellite

Ground track
Ground track

The orbit data is extracted from the following two-line orbital elements,

1 33591U 09005A   15063.56964661  .00000321  00000-0  19999-3 0  9999
2 33591 098.9786 013.2649 0015048 103.6842 256.6005 14.11884323312732
Epoch (UTC): 04 March 2015 13:40:17
Eccentricity: 0.0015048
inclination: 98.9786°
perigee height: 842 km
apogee height: 864 km
right ascension of ascending node: 13.2649°
argument of perigee: 103.6842°
revolutions per day: 14.11884323
mean anomaly at epoch: 256.6005°
orbit number at epoch: 31273

The dashed part of the orbit path shows where the satellite is in the earth's shadow,  

DLR